User: anonymous   Login
Location: Unspecified
(43.4680°N, 87.1740°E)
Time: 13:08:46
(UTC+00:00)
Language:

NOSS 0 Rocket - Orbit

View from above orbital plane
View from above orbital plane
View from above satellite
View from above satellite

Ground track
Ground track

The orbit data is extracted from the following two-line orbital elements,

1 05679U 71110B   21173.54175508 -.00000004  00000-0  41919-4 0  9999
2 05679  69.9961 224.1434 0015284 283.9070  76.0330 13.85355605117175
Epoch (UTC): 22 June 2021 13:00:07
Eccentricity: 0.0015284
inclination: 69.9961°
perigee height: 934 km
apogee height: 956 km
right ascension of ascending node: 224.1434°
argument of perigee: 283.9070°
revolutions per day: 13.85355605
mean anomaly at epoch: 76.0330°
orbit number at epoch: 11717

The dashed part of the orbit path shows where the satellite is in the earth's shadow,  

DLR